,,,PA_Meas_PMT16A,,PR_Meas_QMR101_102,,RH_Meas_QMH101,,SR_Meas_QMS101,,TA_Meas_QMH101,,GenWind,,GenWind,
date,time,status,PA,status,PR,status,RH,status,SR,status,TA,status,DirAvg,status,SpdAvg,
2012-10-15, 00:00:05,VALID,1011.3,VALID,0,VALID,104,VALID,0.112112,VALID,22.2897,VALID,109,VALID,0.465234,
2012-10-15, 00:01:05,VALID,1011.3,VALID,0,VALID,104,VALID,0,VALID,22.2897,VALID,108,VALID,0.271094,
2012-10-15, 00:02:05,VALID,1011.28,VALID,0,VALID,104,VALID,0.112112,VALID,22.3091,VALID,108,VALID,0.485547,
2012-10-15, 00:03:05,VALID,1011.23,VALID,0,VALID,104,VALID,0,VALID,22.3286,VALID,92,VALID,0.451172,
2012-10-15, 00:04:05,VALID,1011.23,VALID,0,VALID,104,VALID,0.112112,VALID,22.3091,VALID,76,VALID,0.585547,
2012-10-15, 00:05:05,VALID,1011.22,VALID,0,VALID,104,VALID,0.112112,VALID,22.3091,VALID,34,VALID,0.708203,
2012-10-15, 00:06:05,VALID,1011.19,VALID,0,VALID,104,VALID,0,VALID,22.2897,VALID,34,VALID,0.31875,
2012-10-15, 00:07:05,VALID,1011.22,VALID,0,VALID,104,VALID,0.112112,VALID,22.2897,VALID,34,VALID,0.212891,
2012-10-15, 00:08:05,VALID,1011.22,VALID,0,VALID,104,VALID,0,VALID,22.2702,VALID,34,VALID,0.0652344,
2012-10-15, 00:09:05,VALID,1011.19,VALID,0,VALID,104,VALID,0.112112,VALID,22.2702,VALID,34,VALID,0.473437,
2012-10-15, 00:10:05,VALID,1011.19,VALID,0,VALID,104,VALID,0,VALID,22.2719,VALID,34,VALID,0.145703,
2012-10-15, 00:11:05,VALID,1011.19,VALID,0,VALID,104,VALID,0,VALID,22.2507,VALID,34,VALID,0.449219,
2012-10-15, 00:12:05,VALID,1011.22,VALID,0,VALID,104,VALID,0,VALID,22.2507,VALID,34,VALID,0.298438,
2012-10-15, 00:13:05,VALID,1011.17,VALID,0,VALID,104,VALID,0,VALID,22.2507,VALID,74,VALID,0.582031,
2012-10-15, 00:14:05,VALID,1011.2,VALID,0,VALID,104,VALID,0,VALID,22.2914,VALID,79,VALID,0.586328,
2012-10-15, 00:15:05,VALID,1011.17,VALID,0,VALID,104,VALID,0,VALID,22.2914,VALID,79,VALID,0.582812,
2012-10-15, 00:16:05,VALID,1011.14,VALID,0,VALID,104,VALID,0,VALID,22.2702,VALID,84,VALID,0.628516,
2012-10-15, 00:17:05,VALID,1011.14,VALID,0,VALID,104,VALID,0,VALID,22.2914,VALID,88,VALID,0.673437,
2012-10-15, 00:18:05,VALID,1011.15,VALID,0,VALID,104,VALID,0.112112,VALID,22.2914,VALID,88,VALID,0.815625,
2012-10-15, 00:19:05,VALID,1011.17,VALID,0,VALID,104,VALID,0,VALID,22.2507,VALID,88,VALID,0.765234,
2012-10-15, 00:20:05,VALID,1011.18,VALID,0,VALID,104,VALID,0.112112,VALID,22.2719,VALID,91,VALID,0.906641,
2012-10-15, 00:21:05,VALID,1011.19,VALID,0,VALID,104,VALID,0,VALID,22.2507,VALID,91,VALID,0.738281,
2012-10-15, 00:22:05,VALID,1011.23,VALID,0,VALID,104,VALID,0,VALID,22.2914,VALID,93,VALID,0.884766,
2012-10-15, 00:23:05,VALID,1011.25,VALID,0,VALID,104,VALID,0.112112,VALID,22.2897,VALID,90,VALID,0.901953,
2012-10-15, 00:24:05,VALID,1011.25,VALID,0,VALID,104,VALID,0.112112,VALID,22.2897,VALID,99,VALID,0.83125,
2012-10-15, 00:25:05,VALID,1011.29,VALID,0,VALID,104,VALID,0,VALID,22.2914,VALID,103,VALID,1.24258,
2012-10-15, 00:26:05,VALID,1011.27,VALID,0,VALID,104,VALID,0,VALID,22.2719,VALID,87,VALID,1.0168,
2012-10-15, 00:27:05,VALID,1011.26,VALID,0,VALID,104,VALID,0.112112,VALID,22.2312,VALID,101,VALID,1.00508,
2012-10-15, 00:28:05,VALID,1011.27,VALID,0,VALID,104,VALID,0,VALID,22.2312,VALID,106,VALID,0.967188,
2012-10-15, 00:29:05,VALID,1011.26,VALID,0,VALID,104,VALID,0,VALID,22.2312,VALID,110,VALID,0.826172,
2012-10-15, 00:30:05,VALID,1011.26,VALID,0,VALID,104,VALID,0,VALID,22.2524,VALID,89,VALID,1.23828,
2012-10-15, 00:31:05,VALID,1011.26,VALID,0,VALID,104,VALID,0.112112,VALID,22.2329,VALID,90,VALID,1.56641,
2012-10-15, 00:32:05,VALID,1011.22,VALID,0,VALID,104,VALID,0,VALID,22.2329,VALID,86,VALID,0.941797,
2012-10-15, 00:33:05,VALID,1011.22,VALID,0,VALID,104,VALID,0,VALID,22.2118,VALID,73,VALID,1.13672,
2012-10-15, 00:34:05,VALID,1011.2,VALID,0,VALID,104,VALID,0,VALID,22.2524,VALID,113,VALID,0.721875,
2012-10-15, 00:35:05,VALID,1011.21,VALID,0,VALID,104,VALID,0,VALID,22.2312,VALID,84,VALID,0.863672,
2012-10-15, 00:36:04,VALID,1011.23,VALID,0,VALID,104,VALID,0.112112,VALID,22.2312,VALID,86,VALID,1.17227,
2012-10-15, 00:37:04,VALID,1011.25,VALID,0,VALID,104,VALID,0,VALID,22.2524,VALID,88,VALID,0.754687,
2012-10-15, 00:38:04,VALID,1011.24,VALID,0,VALID,104,VALID,0.112112,VALID,22.2507,VALID,96,VALID,1.18008,
2012-10-15, 00:39:04,VALID,1011.21,VALID,0,VALID,104,VALID,0,VALID,22.2507,VALID,105,VALID,0.884766,
2012-10-15, 00:40:04,VALID,1011.18,VALID,0,VALID,104,VALID,0.112112,VALID,22.2702,VALID,92,VALID,1.00742,
2012-10-15, 00:41:04,VALID,1011.15,VALID,0,VALID,104,VALID,0,VALID,22.2702,VALID,95,VALID,0.607813,
2012-10-15, 00:42:04,VALID,1011.11,VALID,0,VALID,104,VALID,0,VALID,22.2702,VALID,88,VALID,1.21992,
2012-10-15, 00:43:04,VALID,1011.14,VALID,0,VALID,104,VALID,0.112112,VALID,22.2702,VALID,77,VALID,0.764844,
2012-10-15, 00:44:04,VALID,1011.12,VALID,0,VALID,104,VALID,0,VALID,22.2897,VALID,95,VALID,1.49063,
2012-10-15, 00:45:04,VALID,1011.12,VALID,0,VALID,104,VALID,0,VALID,22.3108,VALID,96,VALID,1.35078,
2012-10-15, 00:46:04,VALID,1011.1,VALID,0,VALID,104,VALID,0.112112,VALID,22.3108,VALID,77,VALID,1.24961,
2012-10-15, 00:47:04,VALID,1011.08,VALID,0,VALID,104,VALID,0,VALID,22.3091,VALID,99,VALID,0.954687,
2012-10-15, 00:48:04,VALID,1011.02,VALID,0,VALID,104,VALID,0.112112,VALID,22.3303,VALID,79,VALID,0.899609,
2012-10-15, 00:49:04,VALID,1010.98,VALID,0,VALID,104,VALID,0.112112,VALID,22.3303,VALID,62,VALID,1.19219,
2012-10-15, 00:50:04,VALID,1010.98,VALID,0,VALID,104,VALID,0.112112,VALID,22.3091,VALID,81,VALID,1.23164,
2012-10-15, 00:51:04,VALID,1010.97,VALID,0,VALID,104,VALID,0.112112,VALID,22.3091,VALID,88,VALID,1.38242,
2012-10-15, 00:52:04,VALID,1010.97,VALID,0,VALID,104,VALID,0.112112,VALID,22.3286,VALID,91,VALID,0.707422,
2012-10-15, 00:53:04,VALID,1010.93,VALID,0,VALID,104,VALID,0,VALID,22.3286,VALID,76,VALID,0.905078,
2012-10-15, 00:54:04,VALID,1010.94,VALID,0,VALID,104,VALID,0,VALID,22.3498,VALID,84,VALID,0.69375,
2012-10-15, 00:55:04,VALID,1010.93,VALID,0,VALID,104,VALID,0.112112,VALID,22.3091,VALID,122,VALID,0.729297,
2012-10-15, 00:56:04,VALID,1010.95,VALID,0,VALID,104,VALID,0.112112,VALID,22.3481,VALID,112,VALID,0.563672,
2012-10-15, 00:57:04,VALID,1010.92,VALID,0,VALID,104,VALID,0,VALID,22.3498,VALID,101,VALID,0.694141,
2012-10-15, 00:58:04,VALID,1010.93,VALID,0,VALID,104,VALID,0.112112,VALID,22.3693,VALID,107,VALID,0.391797,
2012-10-15, 00:59:04,VALID,1010.89,VALID,0,VALID,104,VALID,0.112112,VALID,22.3693,VALID,120,VALID,1.04805,
2012-10-15, 01:00:04,VALID,1010.9,VALID,0,VALID,104,VALID,0,VALID,22.3676,VALID,126,VALID,0.496875,
2012-10-15, 01:01:04,VALID,1010.9,VALID,0,VALID,104,VALID,0.112112,VALID,22.3676,VALID,136,VALID,1.03008,
2012-10-15, 01:02:04,VALID,1010.91,VALID,0,VALID,104,VALID,0.112112,VALID,22.3676,VALID,106,VALID,0.782031,
2012-10-15, 01:03:04,VALID,1010.89,VALID,0,VALID,104,VALID,0.112112,VALID,22.3676,VALID,123,VALID,1.15117,
2012-10-15, 01:04:04,VALID,1010.88,VALID,0,VALID,104,VALID,0,VALID,22.3887,VALID,140,VALID,0.938672,
2012-10-15, 01:05:04,VALID,1010.87,VALID,0,VALID,104,VALID,0.112112,VALID,22.3676,VALID,110,VALID,1.37617,
2012-10-15, 01:06:04,VALID,1010.9,VALID,0,VALID,104,VALID,0.112112,VALID,22.3887,VALID,120,VALID,1.07109,
2012-10-15, 01:07:04,VALID,1010.9,VALID,0,VALID,104,VALID,0,VALID,22.4082,VALID,111,VALID,0.824219,
2012-10-15, 01:08:04,VALID,1010.96,VALID,0,VALID,104,VALID,0,VALID,22.387,VALID,121,VALID,1.26914,
2012-10-15, 01:09:04,VALID,1010.98,VALID,0,VALID,104,VALID,0.112112,VALID,22.4065,VALID,133,VALID,2.07109,
2012-10-15, 01:10:04,VALID,1010.99,VALID,0,VALID,104,VALID,0.112112,VALID,22.4277,VALID,117,VALID,1.46016,
2012-10-15, 01:11:04,VALID,1010.97,VALID,0,VALID,104,VALID,0.112112,VALID,22.4277,VALID,109,VALID,1.58008,
2012-10-15, 01:12:04,VALID,1010.97,VALID,0,VALID,104,VALID,0,VALID,22.4472,VALID,131,VALID,1.01172,
2012-10-15, 01:13:04,VALID,1010.97,VALID,0,VALID,104,VALID,0,VALID,22.426,VALID,142,VALID,0.909375,
2012-10-15, 01:14:04,VALID,1010.95,VALID,0,VALID,104,VALID,0.112112,VALID,22.4667,VALID,109,VALID,0.977734,
2012-10-15, 01:15:04,VALID,1010.94,VALID,0,VALID,104,VALID,0,VALID,22.4667,VALID,114,VALID,1.37852,
2012-10-15, 01:16:04,VALID,1010.92,VALID,0,VALID,104,VALID,0.112112,VALID,22.4455,VALID,102,VALID,0.694922,
2012-10-15, 01:17:04,VALID,1010.9,VALID,0,VALID,104,VALID,0.112112,VALID,22.4861,VALID,99,VALID,1.34453,
2012-10-15, 01:18:04,VALID,1010.94,VALID,0,VALID,104,VALID,0,VALID,22.4861,VALID,84,VALID,1.19258,
2012-10-15, 01:19:04,VALID,1010.93,VALID,0,VALID,104,VALID,0,VALID,22.4844,VALID,92,VALID,1.63086,
2012-10-15, 01:20:04,VALID,1010.91,VALID,0,VALID,104,VALID,0.112112,VALID,22.4844,VALID,81,VALID,1.15391,
2012-10-15, 01:21:04,VALID,1010.94,VALID,0,VALID,104,VALID,0.112112,VALID,22.5234,VALID,100,VALID,1.26992,
2012-10-15, 01:22:04,VALID,1010.94,VALID,0,VALID,104,VALID,0.112112,VALID,22.5429,VALID,111,VALID,0.919922,
2012-10-15, 01:23:04,VALID,1010.92,VALID,0,VALID,104,VALID,0,VALID,22.5835,VALID,121,VALID,1.78398,
2012-10-15, 01:24:04,VALID,1010.91,VALID,0,VALID,104,VALID,0,VALID,22.603,VALID,121,VALID,1.09687,
2012-10-15, 01:25:04,VALID,1010.85,VALID,0,VALID,104,VALID,0.112112,VALID,22.6208,VALID,96,VALID,0.698828,
2012-10-15, 01:26:04,VALID,1010.85,VALID,0,VALID,104,VALID,0,VALID,22.6013,VALID,96,VALID,0.971484,
2012-10-15, 01:27:04,VALID,1010.82,VALID,0,VALID,104,VALID,0,VALID,22.6013,VALID,78,VALID,1.31172,
2012-10-15, 01:28:04,VALID,1010.8,VALID,0,VALID,104,VALID,0,VALID,22.6013,VALID,106,VALID,1.13633,
2012-10-15, 01:29:04,VALID,1010.82,VALID,0,VALID,104,VALID,0.112112,VALID,22.6208,VALID,109,VALID,0.552734,
2012-10-15, 01:30:04,VALID,1010.81,VALID,0,VALID,104,VALID,0.112112,VALID,22.6208,VALID,135,VALID,1.03828,
2012-10-15, 01:31:04,VALID,1010.8,VALID,0,VALID,104,VALID,0,VALID,22.642,VALID,126,VALID,0.842188,
2012-10-15, 01:32:04,VALID,1010.77,VALID,0,VALID,104,VALID,0,VALID,22.642,VALID,86,VALID,0.521875,
2012-10-15, 01:33:04,VALID,1010.74,VALID,0,VALID,104,VALID,0.112112,VALID,22.6013,VALID,106,VALID,1.10117,
2012-10-15, 01:34:04,VALID,1010.68,VALID,0,VALID,104,VALID,0.112112,VALID,22.6225,VALID,79,VALID,1.26523,
2012-10-15, 01:35:04,VALID,1010.58,VALID,0,VALID,104,VALID,0.112112,VALID,22.5818,VALID,109,VALID,0.741016,
2012-10-15, 01:36:04,VALID,1010.54,VALID,0,VALID,104,VALID,0.112112,VALID,22.5835,VALID,97,VALID,1.06328,
2012-10-15, 01:37:04,VALID,1010.55,VALID,0,VALID,104,VALID,0.112112,VALID,22.5818,VALID,106,VALID,0.513281,
2012-10-15, 01:38:04,VALID,1010.57,VALID,0,VALID,104,VALID,0.112112,VALID,22.5623,VALID,68,VALID,0.989453,
2012-10-15, 01:39:04,VALID,1010.55,VALID,0,VALID,104,VALID,0.112112,VALID,22.5835,VALID,72,VALID,1.53984,
2012-10-15, 01:40:04,VALID,1010.52,VALID,0,VALID,104,VALID,0,VALID,22.5835,VALID,76,VALID,0.777344,
2012-10-15, 01:41:04,VALID,1010.52,VALID,0,VALID,104,VALID,0.112112,VALID,22.5818,VALID,103,VALID,0.657812,
2012-10-15, 01:42:04,VALID,1010.51,VALID,0,VALID,104,VALID,0.112112,VALID,22.5818,VALID,68,VALID,0.527344,
2012-10-15, 01:43:04,VALID,1010.53,VALID,0,VALID,104,VALID,0.112112,VALID,22.5818,VALID,86,VALID,0.853516,
2012-10-15, 01:44:04,VALID,1010.49,VALID,0,VALID,104,VALID,0.112112,VALID,22.5818,VALID,89,VALID,0.325391,
2012-10-15, 01:45:04,VALID,1010.46,VALID,0,VALID,104,VALID,0.112112,VALID,22.6013,VALID,111,VALID,0.651172,
2012-10-15, 01:46:04,VALID,1010.46,VALID,0,VALID,104,VALID,0.112112,VALID,22.5835,VALID,72,VALID,0.971875,
2012-10-15, 01:47:04,VALID,1010.42,VALID,0,VALID,104,VALID,0.112112,VALID,22.5835,VALID,105,VALID,1.39336,
2012-10-15, 01:48:04,VALID,1010.43,VALID,0,VALID,104,VALID,0.112112,VALID,22.5429,VALID,95,VALID,1.5,
2012-10-15, 01:49:04,VALID,1010.42,VALID,0,VALID,104,VALID,0.112112,VALID,22.5818,VALID,125,VALID,0.592969,
2012-10-15, 01:50:04,VALID,1010.36,VALID,0,VALID,104,VALID,0.112112,VALID,22.5623,VALID,108,VALID,1.09687,
2012-10-15, 01:51:04,VALID,1010.33,VALID,0,VALID,104,VALID,0.112112,VALID,22.5429,VALID,95,VALID,0.825,
2012-10-15, 01:52:04,VALID,1010.32,VALID,0,VALID,104,VALID,0.112112,VALID,22.564,VALID,78,VALID,0.925391,
2012-10-15, 01:53:04,VALID,1010.28,VALID,0,VALID,104,VALID,0.112112,VALID,22.5623,VALID,74,VALID,0.690234,
2012-10-15, 01:54:04,VALID,1010.31,VALID,0,VALID,104,VALID,0.112112,VALID,22.564,VALID,111,VALID,0.934375,
2012-10-15, 01:55:04,VALID,1010.29,VALID,0,VALID,104,VALID,0.112112,VALID,22.5234,VALID,100,VALID,0.528906,
2012-10-15, 01:56:04,VALID,1010.29,VALID,0,VALID,104,VALID,0.112112,VALID,22.5039,VALID,117,VALID,0.659375,
2012-10-15, 01:57:04,VALID,1010.32,VALID,0,VALID,104,VALID,0.112112,VALID,22.5234,VALID,119,VALID,1.28828,
2012-10-15, 01:58:04,VALID,1010.3,VALID,0,VALID,104,VALID,0.112112,VALID,22.4844,VALID,111,VALID,1.05469,
2012-10-15, 01:59:04,VALID,1010.27,VALID,0,VALID,104,VALID,0.112112,VALID,22.5251,VALID,88,VALID,0.475,
2012-10-15, 02:00:04,VALID,1010.27,VALID,0,VALID,104,VALID,0.112112,VALID,22.5056,VALID,111,VALID,1.10898,
2012-10-15, 02:01:04,VALID,1010.27,VALID,0,VALID,104,VALID,0.112112,VALID,22.4844,VALID,96,VALID,0.877344,
2012-10-15, 02:02:04,VALID,1010.26,VALID,0,VALID,104,VALID,0.112112,VALID,22.5056,VALID,92,VALID,0.712891,
2012-10-15, 02:03:04,VALID,1010.29,VALID,0,VALID,104,VALID,0,VALID,22.5056,VALID,117,VALID,0.752344,
2012-10-15, 02:04:04,VALID,1010.3,VALID,0,VALID,104,VALID,0.112112,VALID,22.5056,VALID,128,VALID,0.843359,
2012-10-15, 02:05:04,VALID,1010.27,VALID,0,VALID,104,VALID,0,VALID,22.5056,VALID,143,VALID,1.25547,
2012-10-15, 02:06:04,VALID,1010.25,VALID,0,VALID,104,VALID,0,VALID,22.5268,VALID,134,VALID,0.572266,
2012-10-15, 02:07:04,VALID,1010.27,VALID,0,VALID,104,VALID,0,VALID,22.4861,VALID,118,VALID,0.656641,
2012-10-15, 02:08:04,VALID,1010.29,VALID,0,VALID,104,VALID,0,VALID,22.5056,VALID,104,VALID,0.420703,
2012-10-15, 02:09:04,VALID,1010.29,VALID,0,VALID,104,VALID,0,VALID,22.5056,VALID,102,VALID,0.851563,
2012-10-15, 02:10:04,VALID,1010.31,VALID,0,VALID,104,VALID,0,VALID,22.4861,VALID,118,VALID,1.32695,
2012-10-15, 02:11:04,VALID,1010.31,VALID,0,VALID,104,VALID,0,VALID,22.4861,VALID,97,VALID,0.982031,
2012-10-15, 02:12:04,VALID,1010.31,VALID,0,VALID,104,VALID,0,VALID,22.4861,VALID,112,VALID,1.09219,
2012-10-15, 02:13:04,VALID,1010.28,VALID,0,VALID,104,VALID,0,VALID,22.4878,VALID,129,VALID,1.46172,
2012-10-15, 02:14:04,VALID,1010.32,VALID,0,VALID,104,VALID,0,VALID,22.4667,VALID,115,VALID,1.35078,
2012-10-15, 02:15:04,VALID,1010.32,VALID,0,VALID,104,VALID,0,VALID,22.4861,VALID,133,VALID,1.54062,
2012-10-15, 02:16:04,VALID,1010.31,VALID,0,VALID,104,VALID,0,VALID,22.4684,VALID,129,VALID,1.14844,
2012-10-15, 02:17:04,VALID,1010.26,VALID,0,VALID,104,VALID,0,VALID,22.4861,VALID,118,VALID,1.10859,
2012-10-15, 02:18:04,VALID,1010.25,VALID,0,VALID,104,VALID,0,VALID,22.4667,VALID,123,VALID,1.31172,
2012-10-15, 02:19:04,VALID,1010.25,VALID,0,VALID,104,VALID,0,VALID,22.4489,VALID,93,VALID,1.43945,
2012-10-15, 02:20:04,VALID,1010.22,VALID,0,VALID,104,VALID,0,VALID,22.4472,VALID,134,VALID,0.776172,
2012-10-15, 02:21:04,VALID,1010.23,VALID,0,VALID,104,VALID,0,VALID,22.4489,VALID,96,VALID,1.36875,
2012-10-15, 02:22:04,VALID,1010.23,VALID,0,VALID,104,VALID,0,VALID,22.4684,VALID,111,VALID,0.944141,
2012-10-15, 02:23:04,VALID,1010.24,VALID,0,VALID,104,VALID,0,VALID,22.4472,VALID,85,VALID,0.763281,
2012-10-15, 02:24:04,VALID,1010.22,VALID,0,VALID,104,VALID,0,VALID,22.4684,VALID,92,VALID,0.824219,
2012-10-15, 02:25:04,VALID,1010.24,VALID,0,VALID,104,VALID,0,VALID,22.4472,VALID,90,VALID,1.04531,
2012-10-15, 02:26:04,VALID,1010.23,VALID,0,VALID,104,VALID,0,VALID,22.4277,VALID,98,VALID,0.920703,
2012-10-15, 02:27:04,VALID,1010.27,VALID,0,VALID,104,VALID,0,VALID,22.4489,VALID,88,VALID,1.69023,
2012-10-15, 02:28:04,VALID,1010.25,VALID,0,VALID,104,VALID,0,VALID,22.4667,VALID,136,VALID,0.965625,
2012-10-15, 02:29:04,VALID,1010.22,VALID,0,VALID,104,VALID,0,VALID,22.4667,VALID,105,VALID,0.55,
2012-10-15, 02:30:04,VALID,1010.21,VALID,0,VALID,104,VALID,0,VALID,22.4472,VALID,106,VALID,0.716797,
2012-10-15, 02:31:04,VALID,1010.2,VALID,0,VALID,104,VALID,0,VALID,22.4667,VALID,102,VALID,0.909375,
2012-10-15, 02:32:04,VALID,1010.17,VALID,0,VALID,104,VALID,0,VALID,22.4861,VALID,123,VALID,1.35625,
2012-10-15, 02:33:04,VALID,1010.14,VALID,0,VALID,104,VALID,0.112112,VALID,22.4844,VALID,127,VALID,0.736719,
2012-10-15, 02:34:04,VALID,1010.16,VALID,0,VALID,104,VALID,0,VALID,22.5056,VALID,123,VALID,0.651953,
2012-10-15, 02:35:04,VALID,1010.18,VALID,0,VALID,104,VALID,0,VALID,22.5056,VALID,127,VALID,1.12969,
2012-10-15, 02:36:04,VALID,1010.16,VALID,0,VALID,104,VALID,0.112112,VALID,22.5039,VALID,114,VALID,0.916016,
2012-10-15, 02:37:04,VALID,1010.15,VALID,0,VALID,104,VALID,0,VALID,22.5234,VALID,106,VALID,0.568359,
2012-10-15, 02:38:04,VALID,1010.16,VALID,0,VALID,104,VALID,0,VALID,22.5039,VALID,84,VALID,1.02773,
2012-10-15, 02:39:04,VALID,1010.18,VALID,0,VALID,104,VALID,0.112112,VALID,22.5251,VALID,115,VALID,0.726563,
2012-10-15, 02:40:04,VALID,1010.2,VALID,0,VALID,104,VALID,0.112112,VALID,22.5039,VALID,98,VALID,0.602734,
2012-10-15, 02:41:04,VALID,1010.21,VALID,0,VALID,104,VALID,0.112112,VALID,22.5039,VALID,102,VALID,0.797656,
2012-10-15, 02:42:04,VALID,1010.21,VALID,0,VALID,104,VALID,0.112112,VALID,22.5446,VALID,97,VALID,1.19492,
2012-10-15, 02:43:04,VALID,1010.22,VALID,0,VALID,104,VALID,0,VALID,22.5234,VALID,142,VALID,0.899219,
2012-10-15, 02:44:04,VALID,1010.22,VALID,0,VALID,104,VALID,0.112112,VALID,22.5039,VALID,130,VALID,0.923437,
2012-10-15, 02:45:04,VALID,1010.19,VALID,0,VALID,104,VALID,0.112112,VALID,22.5446,VALID,95,VALID,0.795703,
2012-10-15, 02:46:04,VALID,1010.23,VALID,0,VALID,104,VALID,0,VALID,22.5251,VALID,115,VALID,0.975,
2012-10-15, 02:47:04,VALID,1010.21,VALID,0,VALID,104,VALID,0,VALID,22.5446,VALID,118,VALID,0.510547,
2012-10-15, 02:48:04,VALID,1010.22,VALID,0,VALID,104,VALID,0,VALID,22.5056,VALID,67,VALID,1.02578,
2012-10-15, 02:49:04,VALID,1010.24,VALID,0,VALID,104,VALID,0,VALID,22.5056,VALID,79,VALID,1.13398,
2012-10-15, 02:50:04,VALID,1010.24,VALID,0,VALID,104,VALID,0,VALID,22.5073,VALID,89,VALID,1.00234,
2012-10-15, 02:51:04,VALID,1010.26,VALID,0,VALID,104,VALID,0,VALID,22.4878,VALID,99,VALID,0.916406,
2012-10-15, 02:52:04,VALID,1010.26,VALID,0,VALID,104,VALID,0,VALID,22.5073,VALID,120,VALID,0.541406,
2012-10-15, 02:53:04,VALID,1010.26,VALID,0,VALID,104,VALID,0,VALID,22.4861,VALID,73,VALID,0.933984,
2012-10-15, 02:54:04,VALID,1010.29,VALID,0,VALID,104,VALID,0,VALID,22.5056,VALID,80,VALID,0.835547,
2012-10-15, 02:55:04,VALID,1010.28,VALID,0,VALID,104,VALID,0,VALID,22.5073,VALID,58,VALID,1.40508,
2012-10-15, 02:56:04,VALID,1010.27,VALID,0,VALID,104,VALID,0,VALID,22.4861,VALID,83,VALID,1.60547,
2012-10-15, 02:57:04,VALID,1010.32,VALID,0,VALID,104,VALID,0,VALID,22.5056,VALID,96,VALID,1.13047,
2012-10-15, 02:58:04,VALID,1010.33,VALID,0,VALID,104,VALID,0,VALID,22.5056,VALID,68,VALID,0.814062,
2012-10-15, 02:59:04,VALID,1010.34,VALID,0,VALID,104,VALID,0,VALID,22.5073,VALID,89,VALID,1.07148,
2012-10-15, 03:00:04,VALID,1010.33,VALID,0,VALID,104,VALID,0,VALID,22.5073,VALID,104,VALID,0.957422,
2012-10-15, 03:01:04,VALID,1010.29,VALID,0,VALID,104,VALID,0,VALID,22.4861,VALID,105,VALID,0.703906,
2012-10-15, 03:02:04,VALID,1010.27,VALID,0,VALID,104,VALID,0,VALID,22.5056,VALID,105,VALID,0.0433594,
2012-10-15, 03:03:04,VALID,1010.22,VALID,0,VALID,104,VALID,0.112112,VALID,22.5251,VALID,105,VALID,0.0777344,
2012-10-15, 03:04:04,VALID,1010.27,VALID,0,VALID,104,VALID,0.112112,VALID,22.4048,VALID,96,VALID,1.22109,
2012-10-15, 03:05:04,VALID,1010.28,VALID,0,VALID,104,VALID,0.112112,VALID,22.4472,VALID,99,VALID,1.0082,
2012-10-15, 03:06:04,VALID,1010.22,VALID,0,VALID,104,VALID,0,VALID,22.4277,VALID,90,VALID,0.566406,
2012-10-15, 03:07:04,VALID,1010.25,VALID,0,VALID,104,VALID,0.112112,VALID,22.4472,VALID,100,VALID,0.673828,
2012-10-15, 03:08:04,VALID,1010.27,VALID,0,VALID,104,VALID,0,VALID,22.387,VALID,79,VALID,1.41641,
2012-10-15, 03:09:04,VALID,1010.26,VALID,0,VALID,104,VALID,0.112112,VALID,22.4082,VALID,93,VALID,0.631641,
2012-10-15, 03:10:04,VALID,1010.29,VALID,0,VALID,104,VALID,0.112112,VALID,22.4065,VALID,64,VALID,0.470313,
2012-10-15, 03:11:04,VALID,1010.32,VALID,0,VALID,104,VALID,0,VALID,22.3676,VALID,88,VALID,0.727344,
2012-10-15, 03:12:04,VALID,1010.32,VALID,0,VALID,104,VALID,0.112112,VALID,22.387,VALID,61,VALID,0.698828,
2012-10-15, 03:13:04,VALID,1010.35,VALID,0,VALID,104,VALID,0.112112,VALID,22.3676,VALID,88,VALID,0.644531,
2012-10-15, 03:14:04,VALID,1010.39,VALID,0,VALID,104,VALID,0.112112,VALID,22.3887,VALID,75,VALID,0.600391,
2012-10-15, 03:15:04,VALID,1010.43,VALID,0,VALID,104,VALID,0.112112,VALID,22.3676,VALID,81,VALID,0.954687,
2012-10-15, 03:16:04,VALID,1010.38,VALID,0,VALID,104,VALID,0,VALID,22.3286,VALID,75,VALID,0.747266,
2012-10-15, 03:17:04,VALID,1010.36,VALID,0,VALID,104,VALID,0.112112,VALID,22.3693,VALID,75,VALID,0.808984,
2012-10-15, 03:18:04,VALID,1010.42,VALID,0,VALID,104,VALID,0,VALID,22.3303,VALID,56,VALID,0.949609,
2012-10-15, 03:19:04,VALID,1010.41,VALID,0,VALID,104,VALID,0,VALID,22.3108,VALID,86,VALID,0.935547,
2012-10-15, 03:20:04,VALID,1010.41,VALID,0,VALID,104,VALID,0,VALID,22.2914,VALID,78,VALID,1.175,
2012-10-15, 03:21:04,VALID,1010.4,VALID,0,VALID,104,VALID,0,VALID,22.2914,VALID,85,VALID,1.11758,
2012-10-15, 03:22:04,VALID,1010.39,VALID,0,VALID,104,VALID,0,VALID,22.2719,VALID,93,VALID,1.17852,
2012-10-15, 03:23:04,VALID,1010.4,VALID,0,VALID,104,VALID,0,VALID,22.2719,VALID,64,VALID,1.10703,
2012-10-15, 03:24:04,VALID,1010.39,VALID,0,VALID,104,VALID,0,VALID,22.2524,VALID,76,VALID,0.917578,
2012-10-15, 03:25:04,VALID,1010.42,VALID,0,VALID,104,VALID,0,VALID,22.2524,VALID,67,VALID,0.682031,
2012-10-15, 03:26:04,VALID,1010.41,VALID,0,VALID,104,VALID,0,VALID,22.2524,VALID,67,VALID,0.626562,
2012-10-15, 03:27:04,VALID,1010.41,VALID,0,VALID,104,VALID,0,VALID,22.2524,VALID,71,VALID,0.778516,
2012-10-15, 03:28:04,VALID,1010.4,VALID,0,VALID,104,VALID,0,VALID,22.2346,VALID,34,VALID,0.759375,
2012-10-15, 03:29:04,VALID,1010.41,VALID,0,VALID,104,VALID,0,VALID,22.2134,VALID,49,VALID,0.621875,
2012-10-15, 03:30:04,VALID,1010.42,VALID,0,VALID,104,VALID,0,VALID,22.194,VALID,58,VALID,0.970703,
2012-10-15, 03:31:04,VALID,1010.43,VALID,0,VALID,104,VALID,0,VALID,22.194,VALID,46,VALID,0.779688,
2012-10-15, 03:32:04,VALID,1010.44,VALID,0,VALID,104,VALID,0,VALID,22.1957,VALID,37,VALID,0.350781,
2012-10-15, 03:33:04,VALID,1010.45,VALID,0,VALID,104,VALID,0,VALID,22.1745,VALID,74,VALID,0.596875,
2012-10-15, 03:34:04,VALID,1010.43,VALID,0,VALID,104,VALID,0,VALID,22.155,VALID,75,VALID,0.742969,
2012-10-15, 03:35:04,VALID,1010.43,VALID,0,VALID,104,VALID,0,VALID,22.1745,VALID,75,VALID,0.416406,
2012-10-15, 03:36:04,VALID,1010.42,VALID,0,VALID,104,VALID,0,VALID,22.155,VALID,68,VALID,0.358203,
2012-10-15, 03:37:04,VALID,1010.43,VALID,0,VALID,104,VALID,0,VALID,22.1745,VALID,99,VALID,0.751953,
2012-10-15, 03:38:04,VALID,1010.42,VALID,0,VALID,104,VALID,0,VALID,22.1762,VALID,64,VALID,0.572656,
2012-10-15, 03:39:04,VALID,1010.43,VALID,0,VALID,104,VALID,0,VALID,22.1355,VALID,82,VALID,0.708203,
2012-10-15, 03:40:04,VALID,1010.43,VALID,0,VALID,104,VALID,0,VALID,22.1355,VALID,89,VALID,0.916797,
2012-10-15, 03:41:04,VALID,1010.43,VALID,0,VALID,104,VALID,0,VALID,22.1355,VALID,78,VALID,1.42695,
2012-10-15, 03:42:04,VALID,1010.44,VALID,0,VALID,104,VALID,0,VALID,22.1567,VALID,73,VALID,1.28828,
2012-10-15, 03:43:04,VALID,1010.43,VALID,0,VALID,104,VALID,0,VALID,22.1355,VALID,82,VALID,1.03164,
2012-10-15, 03:44:04,VALID,1010.44,VALID,0,VALID,104,VALID,0,VALID,22.1372,VALID,83,VALID,1.1793,
2012-10-15, 03:45:04,VALID,1010.42,VALID,0,VALID,104,VALID,0,VALID,22.1372,VALID,82,VALID,1.50547,
2012-10-15, 03:46:04,VALID,1010.41,VALID,0,VALID,104,VALID,0,VALID,22.1161,VALID,74,VALID,1.85312,
2012-10-15, 03:47:04,VALID,1010.38,VALID,0,VALID,104,VALID,0,VALID,22.0966,VALID,78,VALID,0.963281,
2012-10-15, 03:48:04,VALID,1010.39,VALID,0,VALID,104,VALID,0.112112,VALID,22.1161,VALID,68,VALID,0.889453,